TRANSIT 5B-2 DEB, 25156

Orbit data source: Space-Track

TRANSIT 5B-2 DEB, 25156 is space debris in LEO originally from a launch on Thu, 05 Dec 1963 UTC launched from the Air Force Western Test Range (AFWTR). Debris objects in space refer to the collection of defunct objects orbiting the Earth. Examples of debris include non-operational satellites, rocket bodies, and fragments generated from explosions, collisions, or faulty payload assembly.

Loading next visibility...
TRANSIT 5B-2 DEB details
Identifier
25156, 1963-049N
Orbit
LEO
Last TLE update18 hours ago
Origin
Flag of USUSN NAVAIR (US)
ManufacturerUnknown
MissionSpacecraft
Bus & MotorUnknown
MassUnknown
Launch date (UTC)
1963-12-05 (61 years ago)
Launch vehicleUnknown
Launch site
Air Force Western Test Range (AFWTR)
Object type
Payload
Rocket body
Debris
Shape & HBRUnknown
Radar Cross SectionMedium (>0.1 m² and <1 m²)

Expand to show TLE details & history

TLE from 18 hours ago
0 TRANSIT 5B-2 DEB
1 25156U 63049N   24355.74956896  .00001053  00000-0  14723-2 0  9992
2 25156  89.9174  76.5438 0044668 173.2941 303.3990 13.56447170325338
Epoch: 2024-12-20T17:59Z
Definitive object data (Epoch: 2024-12-20T17:59:22.758Z)
Latitude63.81998°
Longitude-103.27878°
Altitude1,041.546 km
Speed7.346 km/s
True Right ascension17h 05m 30s
True Declination63° 41' 20"
Sunlit
Object was in daylight at TLE epoch
Visualization TLE readout
Latitude6.6673°
Longitude-103.12755°
Altitude1,017.815 km
Speed7.36 km/s
Apparent Right ascension19h 19m 00s
Apparent Declination-19° 47' 48"
Sunlit
Object is in daylight
Visualization observer readout
Local Sidereal Time11:00:01
Azimuth83.774° E
Elevation-38.949°
Doppler factor1
Orbital elements
Apogee altitude1,078.833 km
Perigee altitude1,012.512 km
Semi-major axis7,423.809 km
Eccentricity0.0044668
Inclination89.9174°
RAAN76.5438°
Arg. of periapsis173.2941°
True anomaly302.97036°
Mean anomaly303.399°
Eccentric anomaly303.18481°
Mean motion3.39315 °/min
BSTAR0.0014723
Orbital period106.1 mins
Loading maneuver chart data...
Loading historical data...
Loading historical data...
Loading historical data...
Loading historical data...
Loading historical data...
Loading historical data...
Loading historical data...

TRANSIT 5B-2 DEB Visibility forecast

Observer location: undefined°, undefined

Span
Click to sort rows by Start time (UTC) header in descending order
Start Az.
Max El. time (UTC)
Max El. Az.
Max El.
End time (UTC)
End Az.
10 mins2024-12-21 17:02:17.744Z25.272° NE2024-12-21 17:07:17.744Z86.181° E28.495°2024-12-21 17:12:17.744Z144.04° SSE
9 mins2024-12-21 18:49:17.744Z335.164° NNW2024-12-21 18:53:17.744Z277.823° WNW30.793°2024-12-21 18:58:17.744Z219.394° SW
10 mins2024-12-22 04:57:17.744Z130.31° SE2024-12-22 05:01:17.744Z85.296° E27.58°2024-12-22 05:07:17.744Z18.415° NNE
10 mins2024-12-22 06:43:17.744Z214.644° SW2024-12-22 06:47:17.744Z268.557° W33.055°2024-12-22 06:53:17.744Z341.625° N
|